Location: Wieda
(51.5500°N, 10.5833°E)
Time: 20:58:26
(UTC+00:00)

Daily predictions for brighter satellites

Satellite Brightness Start Highest point End
(mag) Time Altitude Azimuth Time Altitude Azimuth Time Altitude Azimuth
Cosmos 1953 Rocket 3.9 20:14:55 10° SSE 20:19:03 45° E 20:23:11 10° NNE
Cosmos 773 Rocket 4.4 20:14:35 10° S 20:19:37 46° ESE 20:24:41 10° NE
ATLAS CENTAUR R/B 1.2 20:17:01 10° NW 20:20:45 73° NE 20:24:24 10° SE
Cosmos 2237 Rocket 3.9 20:19:10 10° SE 20:22:06 14° E 20:25:03 10° ENE
Cosmos 2219 Rocket 2.8 20:17:27 10° S 20:22:30 36° ESE 20:27:35 10° NE
USA 215 4.0 20:16:56 10° ENE 20:22:37 30° SE 20:28:15 10° S
ERS-1 Rocket 3.2 20:17:41 10° SSE 20:22:38 61° ENE 20:27:37 10° N
Gblst 52 Del rocket 4.3 20:17:18 10° WNW 20:22:52 72° SSW 20:29:01 10° ESE
Cosmos 1818 3.6 20:18:31 10° SSW 20:23:56 78° SE 20:29:25 10° NE
Cosmos 2360 Rocket 2.3 20:19:18 10° SSW 20:24:57 89° ESE 20:30:41 10° NNE
Cosmos 2333 4.4 20:19:45 10° S 20:25:12 52° ESE 20:30:44 10° NE
CZ-4C R/B 4.4 20:22:41 10° NW 20:28:06 30° N 20:34:23 10° ENE
SPOT 5 3.1 20:23:52 10° SSE 20:28:45 59° ENE 20:33:26 10° N
Landsat 7 4.1 20:27:32 10° S 20:32:17 71° WSW 20:37:04 10° NNW
CZ-2C R/B 4.3 20:29:00 10° N 20:33:58 37° WNW 20:38:50 10° SW
Cosmos 1825 Rocket 3.6 20:29:36 10° S 20:34:03 89° W 20:38:34 10° N
Cosmos 2333 Rocket 2.5 20:30:50 10° S 20:36:16 48° ESE 20:41:46 10° NE
GEOS 3 Rocket 3.8 20:33:13 10° NE 20:38:30 53° SE 20:43:45 10° SSW
SL-16 R/B 3.9 20:40:18 10° WSW 20:45:34 38° NW 20:50:53 10° NNE
Cosmos 1315 Rocket 2.9 20:41:36 10° N 20:45:42 74° ENE 20:49:46 10° SSE
Spot 2 Rocket 4.2 20:41:01 10° S 20:45:59 52° W 20:51:00 10° NNW
IGS 5A 4.3 20:43:46 10° S 20:47:47 47° W 20:51:49 10° NNW
ATLAS 5 CENTAUR R/B 1.8 20:49:11 10° SW 20:53:24 79° NW 20:58:16 10° NE
Cosmos 2278 Rocket 2.4 20:47:50 10° NNW 20:53:32 67° ENE 20:58:50 12° SE
Cosmos 1892 4.2 20:51:28 12° SE 20:54:04 22° E 20:57:03 10° NE
CARTOSAT-1 3.7 20:49:56 10° S 20:54:14 77° WSW 20:58:35 10° NNW
USA 81 4.1 20:49:55 10° S 20:55:10 77° E 21:00:29 10° N
Cosmos 1844 Rocket 4.0 20:50:27 10° NW 20:55:23 33° WSW 21:00:18 10° S
Cosmos 1943 Rocket 4.3 20:52:09 10° NNW 20:56:17 20° NNE 21:00:23 10° E
USA 267 3.4 20:50:38 10° ESE 20:57:13 84° NNE 21:03:49 10° WNW
Cosmos 1709 Rocket 4.3 20:52:25 10° SSW 20:58:43 76° W 21:05:09 10° N
Meteor 1-11 4.3 20:59:27 10° SSW 21:05:06 83° WNW 21:10:51 10° NNE
Cosmos 1408 4.3 21:03:39 12° SE 21:05:35 18° E 21:08:02 10° NE
SPOT 1/Viking Rocket 4.4 21:01:46 10° S 21:06:42 46° W 21:11:42 10° NNW
SL-16 R/B 4.1 21:05:11 10° ESE 21:07:17 12° E 21:09:22 10° ENE
Cosmos 2221 2.6 21:07:10 10° N 21:11:35 76° E 21:15:14 14° SSE
Cosmos 2184 Rocket 4.1 21:08:51 10° S 21:15:00 62° E 21:21:13 10° NNE
Lacrosse 5 rocket 2.8 21:11:23 10° WNW 21:15:20 38° N 21:19:03 10° ENE
Resurs 01 Rocket 4.3 21:14:24 10° WSW 21:16:34 13° W 21:18:44 10° WNW
SAR-Lupe-2 4.5 21:14:15 10° N 21:17:45 49° WNW 21:21:13 10° SW
In-Cosmos 22 Rocket 4.4 21:14:18 13° SSE 21:18:51 50° E 21:23:59 10° NNE
Terra 2.0 21:14:58 12° S 21:19:19 71° WSW 21:24:06 10° NNW
Cosmos 923 Rocket 4.4 21:16:23 11° S 21:21:07 46° ESE 21:26:11 10° NE
TSX-5 3.7 21:23:45 10° NW 21:27:10 69° WSW 21:30:04 18° SSE
NOSS 3-4 (A) 3.9 21:22:24 10° NW 21:29:17 89° NE 21:36:03 14° SE
NOSS 3-4 (C) 3.9 21:22:30 10° NW 21:29:23 88° NE 21:36:11 14° SE
Cosmos 2058 3.1 21:27:38 17° SSE 21:30:42 54° E 21:34:46 10° NNE
Cosmos 1624 Rocket 4.3 21:31:58 10° NNW 21:37:10 61° ENE 21:41:12 17° SE
NOSS 3-3 (A) 4.0 21:34:45 10° SW 21:40:44 90° SE 21:47:35 10° NE
NOSS 3-3 (C) 4.0 21:34:51 10° SW 21:40:50 89° SE 21:47:42 10° NE
Cosmos 1825 3.2 21:39:57 19° SE 21:41:51 30° E 21:45:13 10° NNE
Cosmos 2369 Rocket 4.0 21:40:10 10° NNW 21:44:49 26° NE 21:49:28 10° E
JB-3 4.2 21:41:11 10° NNE 21:45:04 87° ESE 21:48:04 16° SSW
Cosmos 1980 3.8 21:41:49 11° SSW 21:47:12 61° ESE 21:52:47 10° NE
Aureole 2 Rocket 3.1 21:44:39 10° N 21:47:16 34° ENE 21:48:50 19° ESE
Meteor 2-17 Rocket 4.4 21:43:28 12° S 21:49:09 89° E 21:55:15 10° N
Nadezhda 3 Rocket 4.1 21:43:55 10° N 21:50:20 90° ENE 21:55:18 18° S
Cosmos 1076 Rocket 3.4 21:47:33 18° S 21:50:43 77° E 21:55:00 10° NNE
COSMOS 2455 3.8 21:46:25 10° NNW 21:52:13 44° NE 21:57:58 10° ESE
COSMOS 2428 3.2 21:49:03 10° SW 21:54:40 62° NW 22:00:20 10° NNE
Cosmos 2154 Rocket 4.0 21:49:47 15° S 21:55:00 78° E 22:01:15 10° NNE
ATLAS 2AS CENTAUR R/B 2.9 21:49:33 10° NW 21:57:12 75° SW 22:02:39 18° SSE
Thor Agena Rocket 3.7 21:53:04 10° NNE 21:58:06 54° E 22:01:29 20° S
Cosmos 2151 3.6 21:55:43 22° SSE 21:58:06 42° E 22:02:09 10° NNE
ATLAS CENTAUR R/B 3.3 21:57:02 10° W 21:59:07 15° WSW 22:00:56 11° SW
Cosmos 2341 Rocket 4.4 21:55:15 19° SSE 21:59:38 51° E 22:05:36 10° NNE
Cosmos 2074 Rocket 4.3 21:54:53 10° SSW 22:01:03 65° WNW 22:07:16 10° N
BREEZE-M DEB (TANK) 1.8 21:57:57 10° W 22:02:17 50° SSW 22:03:23 28° SE
Genesis I 3.4 22:00:58 19° SSW 22:03:29 49° SE 22:07:16 10° NE
SL-4 R/B 3.3 22:04:33 10° ENE 22:05:02 11° ENE 22:05:32 10° NE
Cosmos 2237 Rocket 2.2 21:59:39 11° SSW 22:05:13 76° ESE 22:10:56 10° NNE
Cosmos 1371 Rocket 4.0 22:00:01 10° NNW 22:05:18 78° WSW 22:08:51 21° SSE
USA 215 3.2 21:59:40 10° ENE 22:06:17 80° SSE 22:12:50 10° SW
Cosmos 2219 Rocket 3.2 22:00:56 10° SW 22:06:20 48° NW 22:11:48 10° NNE
Spot 4 3.8 22:06:50 22° SSE 22:09:58 87° WSW 22:14:48 10° NNW
Cosmos 2344 3.7 22:05:12 10° SSW 22:12:25 55° ESE 22:20:19 10° NE
Cosmos 1151 Rocket 3.6 22:09:00 10° N 22:13:13 47° ENE 22:15:44 22° SE
Cosmos 158 Rocket 3.8 22:09:32 15° SSW 22:13:34 83° ESE 22:18:30 10° NNE
SL-8 Rocket 4.4 22:11:02 20° SSE 22:15:06 50° E 22:21:01 10° NNE
Cosmos 2112 Rocket 4.0 22:12:33 15° SSW 22:17:04 83° ESE 22:22:28 10° NNE
Elektron 1 4.5 22:15:08 13° SW 22:18:02 71° SE 22:24:02 10° NE
CZ-4C R/B 3.7 22:11:40 10° NW 22:18:09 49° NNE 22:25:47 10° ESE
Cosmos 332 Rocket 4.5 22:14:37 10° NNW 22:19:17 48° ENE 22:22:47 17° SE
Cosmos 1420 Rocket 4.1 22:15:01 10° NNW 22:20:19 73° ENE 22:23:56 21° SE
Cosmos 2333 Rocket 3.6 22:15:22 10° WSW 22:20:42 39° NW 22:26:05 10° NNE
ATLAS 5 CENTAUR R/B 4.3 22:19:52 10° NNW 22:20:48 12° N 22:21:50 10° NE
ALOS 2 2.8 22:18:57 23° SSE 22:21:34 66° ENE 22:25:57 10° N
Iridium 2 4.2 22:19:53 10° NNW 22:23:38 54° W 22:25:48 23° SSW
EO 1 Del DPAF 3.1 22:24:02 10° NNE 22:27:49 90° N 22:29:55 25° SSW
Cosmos 2056 Rocket 3.8 22:23:46 10° NNW 22:29:06 59° WSW 22:32:26 23° S
Cosmos 1892 4.0 22:26:26 12° SW 22:29:34 35° WNW 22:33:06 10° N
NOSS 0 Rocket 4.3 22:24:23 10° SW 22:30:31 68° NW 22:36:42 10° NNE
GP-B 3.3 22:26:15 10° N 22:30:41 62° E 22:33:05 26° SSE
Cosmos 1633 4.2 22:32:54 18° ESE 22:34:11 22° E 22:37:00 10° NE
Cosmos 1606 2.7 22:31:38 10° N 22:35:32 87° W 22:37:25 30° S
RESURS DK-1 4.1 22:33:23 10° NNW 22:37:02 29° NE 22:40:40 10° ESE
Cosmos 2278 Rocket 3.7 22:32:36 10° NW 22:37:09 25° WSW 22:40:40 14° SSW
ATLAS 5 CENTAUR R/B 4.1 22:34:56 10° WNW 22:38:49 27° NNW 22:43:12 10° NE
Cosmos 2297 3.8 22:34:33 10° NNW 22:40:18 71° WSW 22:43:52 24° SSE
Cosmos 1408 3.6 22:37:57 17° SW 22:40:20 39° WNW 22:43:44 10° N
USA 267 3.7 22:36:39 21° SSE 22:40:37 43° SW 22:46:50 10° WNW
Cosmos 1943 Rocket 2.5 22:35:28 10° NNW 22:41:09 67° ENE 22:45:29 17° SE
MOS 1-B Rocket 4.5 22:33:17 10° NNE 22:41:12 86° WNW 22:46:37 17° SSW
Cosmos 44 3.2 22:40:51 26° S 22:43:04 54° SE 22:47:25 10° NE
Gbstr 26 Del rocket 3.9 22:44:19 24° SE 22:44:19 24° SE 22:47:20 10° E
Cosmos 1680 Rocket 4.1 22:40:01 10° SW 22:45:14 56° WNW 22:50:30 10° NNE
Cosmos 371 Rocket 3.3 22:43:45 10° NNW 22:48:38 78° WSW 22:51:21 26° SSE
SL-16 R/B 2.2 22:46:35 22° SSW 22:50:17 66° ESE 22:55:57 10° NE
IRIDIUM 104 4.3 22:49:58 25° S 22:53:06 84° E 22:58:22 10° N
APEX 2.2 22:50:31 10° NNW 22:53:17 83° SW 22:53:52 51° SSE
CREW DRAGON DEMO-1 DEB 2.8 22:53:16 29° SW 22:54:32 55° SSE 22:57:34 10° E
Cosmos 405 3.6 22:51:09 10° N 22:54:36 46° ENE 22:56:11 27° SE
Lacrosse 5 rocket 1.5 22:50:55 10° WNW 22:54:58 66° NNE 22:58:47 10° ESE
Cosmos 1452 Rocket 3.5 22:50:49 10° NNW 22:56:07 88° WSW 22:59:20 24° SSE
Cosmos 1515 Rocket 3.6 22:53:30 10° N 22:57:52 76° ENE 23:00:08 28° SSE
Terra 4.4 22:57:00 10° W 22:57:57 11° W 22:58:54 10° WNW
IRIDIUM 114 4.3 22:59:06 25° S 23:02:16 83° W 23:07:32 10° N
Cosmos 1328 Rocket 3.8 22:59:43 10° NNW 23:03:59 59° W 23:06:06 28° SSW
Cosmos 1766 Rocket 3.8 23:01:32 24° SSW 23:04:05 67° WNW 23:08:30 10° N
Okean 3 Rocket 4.2 23:07:35 21° SW 23:10:23 51° WNW 23:14:44 10° N
IRIDIUM 103 4.5 23:08:14 24° SSW 23:11:26 70° W 23:16:41 10° N
Meteor 2-3 Rocket 3.7 23:12:54 24° S 23:16:26 88° ESE 23:22:12 10° NNE
Cosmos 1340 2.7 23:15:33 30° SSW 23:17:16 72° WNW 23:21:03 10° N
Cosmos 1825 3.9 23:14:45 13° WSW 23:17:23 26° WNW 23:20:37 10° NNW
Cosmos 2228 Rocket 3.3 23:14:17 10° N 23:18:53 70° ENE 23:21:26 26° SSE
Resurs 1-4 Rocket 4.4 23:17:58 10° ENE 23:19:42 11° E 23:21:25 10° ESE
Aureole 2 Rocket 4.2 23:18:58 10° WNW 23:20:39 14° WSW 23:20:49 14° WSW
Cosmos 2218 Rocket 4.2 23:17:43 21° SSW 23:22:10 71° WNW 23:28:29 10° N
Meteor 2-6 Rocket 4.3 23:19:32 10° N 23:25:02 67° ENE 23:28:39 21° SSE
Cosmos 1603 4.5 23:22:36 23° SSE 23:25:30 39° ESE 23:30:46 10° NE
Cosmos 2366 rocket 4.2 23:21:57 21° SSW 23:26:23 70° WNW 23:32:45 10° N
Cosmos 2369 Rocket 2.1 23:23:54 10° NNW 23:29:31 82° WSW 23:33:18 22° SSE
CZ-4 R/B 4.3 23:25:25 10° NNE 23:29:58 48° E 23:32:25 25° SSE
Cosmos 1743 Rocket 3.5 23:29:40 30° S 23:31:47 79° E 23:36:09 10° NNE
Sich 1 4.3 23:29:53 19° SE 23:32:08 30° E 23:35:56 10° NNE
Cosmos 304 Rocket 3.9 23:27:41 10° NNW 23:32:29 64° WSW 23:35:01 27° S
SL-4 R/B 2.5 23:33:31 19° WNW 23:33:31 19° WNW 23:34:42 10° NW
Cosmos 44 Rocket 4.4 23:32:07 22° SSE 23:33:44 27° ESE 23:37:44 10° ENE
Cosmos 1821 Rocket 4.1 23:30:58 23° S 23:34:50 65° E 23:40:52 10° NNE
YAOGAN 11 4.3 23:33:15 29° S 23:35:22 62° WSW 23:39:48 10° NNW
Cosmos 2123 Rocket 4.5 23:29:50 10° N 23:35:55 54° ENE 23:40:48 16° SSE
Helios 1A 3.4 23:34:08 28° SSW 23:35:56 48° W 23:39:59 10° NNW
COSMOS 2455 3.1 23:32:29 10° NW 23:38:19 51° WSW 23:41:47 24° S
Cosmos 1656 Rocket 3.9 23:34:15 10° NNW 23:39:40 68° ENE 23:44:30 13° SE
ATLAS 2AS CENTAUR R/B 4.3 23:41:54 10° WNW 23:46:54 20° WSW 23:50:03 15° SW
USA 215 3.8 23:42:46 10° ENE 23:49:13 61° NNW 23:55:39 10° W
Cosmos 1812 2.9 23:45:32 10° N 23:49:23 64° ENE 23:51:26 26° SSE
Cosmos 2237 Rocket 4.0 23:45:00 10° W 23:49:52 28° NW 23:54:47 10° NNE
CRYOSAT 2 4.3 23:46:06 10° N 23:50:59 82° E 23:53:46 26° S
Cosmos 1782 3.5 23:47:43 10° NNW 23:51:27 40° W 23:53:04 27° SW
CZ-2D R/B 4.0 23:49:20 10° NE 23:53:17 21° E 23:57:15 10° SE
